Lapse_Rate
2.9 6.2 10.3 9.4 6.6 6.5 6.5 6.5 6.5 6.5 6.5 7.3 7.7 7.0 6.6 6.7 6.5 6.5 8.4 9.7 9.6 8.9 9.0 6.3 5.7 4.9 4.7 4.8 4.7 4.6 4.5 4.4 4.4 4.3 4.4 4.3 4.4 4.5 4.7 5.1 5.6 5.9 6.3 6.5 6.2 6.2 5.9 5.7 5.5
9.9 10.0 9.7 8.2 6.5 6.5 6.5 6.5 6.5 6.5 7.0 6.4 7.9 7.4 6.9 6.5 6.8 6.6 8.0 9.3 9.6 9.7 9.5 8.8 5.3 5.0 5.1 5.1 5.0 5.0 4.8 4.6 4.3 4.5 4.5 4.4 4.5 4.6 4.8 5.0 5.6 6.0 6.4 6.6 6.3 6.1 5.8 5.6 5.4
9.4 9.9 8.1 6.5 6.5 6.5 6.5 6.5 6.5 6.7 7.6 7.4 7.1 7.8 7.4 7.0 7.9 8.5 8.5 9.2 9.2 9.1 9.5 8.1 5.1 5.4 5.4 5.2 5.1 5.0 4.7 4.4 4.6 4.6 4.5 4.5 4.8 4.8 5.0 5.2 5.7 6.2 6.6 6.6 6.2 5.8 5.4 5.1 4.9
9.6 9.1 8.3 6.5 6.5 6.5 6.5 6.5 6.6 6.6 7.5 7.8 7.6 6.5 8.0 8.7 7.6 8.4 9.1 9.2 7.7 7.4 9.2 4.5 4.6 5.5 5.1 5.1 5.1 4.8 4.3 4.4 4.5 4.5 4.6 4.9 5.0 5.0 5.2 5.4 6.0 6.5 6.6 6.2 6.0 5.5 5.1 4.7 4.9
9.6 8.4 6.5 6.5 6.5 6.5 6.5 6.9 7.1 6.5 6.8 7.1 7.5 6.7 7.2 3.9 7.0 8.5 8.9 8.3 7.8 7.3 8.5 5.7 4.2 5.2 5.3 5.2 4.9 4.5 4.5 4.5 4.5 4.6 4.5 4.9 4.8 4.7 5.0 5.1 5.8 6.1 5.7 5.5 5.5 5.3 5.0 4.8 5.0
7.8 7.7 6.5 6.5 6.5 6.5 6.5 7.3 7.2 6.8 7.2 7.4 7.2 7.0 7.5 8.6 7.8 7.7 9.3 8.6 7.0 4.9 6.8 6.1 5.3 5.1 5.4 5.1 5.0 4.9 4.6 4.5 4.5 4.4 4.4 4.7 4.2 4.3 4.3 4.6 4.8 4.8 4.8 5.0 4.9 4.9 4.8 4.9 4.8
6.9 6.5 6.5 6.5 6.5 6.5 6.5 7.5 6.8 6.8 6.8 6.8 8.1 6.5 7.8 8.4 6.9 7.7 8.7 8.0 5.9 5.3 4.5 5.4 6.0 6.7 5.5 6.0 5.7 4.9 4.7 4.6 4.6 4.1 3.6 3.4 3.4 4.0 4.0 4.2 4.5 4.5 4.7 4.7 4.7 4.7 4.7 4.6 4.7
8.0 6.5 6.5 6.5 6.5 6.5 6.8 7.2 7.6 7.3 6.9 8.2 8.4 6.5 6.8 8.1 6.5 5.9 6.9 6.8 5.4 5.9 5.2 4.8 3.9 4.2 4.5 7.0 4.9 4.3 4.0 4.0 3.6 3.2 3.3 3.4 3.8 4.0 4.1 4.2 4.3 4.5 4.4 4.3 4.4 4.5 4.4 4.5 4.8
8.6 6.5 6.5 6.5 6.5 6.5 7.1 6.6 7.6 8.1 7.6 7.8 8.2 8.1 8.4 7.0 4.3 3.7 5.3 4.9 4.7 3.8 3.6 3.3 2.8 3.3 3.7 4.2 7.6 4.9 4.5 4.2 3.9 4.2 4.9 6.3 7.0 6.8 7.2 4.6 4.4 4.1 4.0 4.2 4.3 4.4 5.1 5.1 5.3
6.9 6.5 6.5 6.5 6.5 6.5 6.8 7.0 7.2 7.1 7.0 7.2 7.6 8.4 8.6 7.8 5.9 5.3 4.9 5.1 4.1 3.8 3.5 3.1 3.0 3.0 3.7 4.5 4.8 7.7 6.7 6.8 6.7 6.5 7.2 8.2 7.6 9.5 7.0 4.9 3.9 3.8 3.9 4.2 4.5 5.9 6.2 7.9 9.0
7.0 6.5 6.5 6.8 7.2 7.4 6.9 6.9 7.6 6.9 6.5 7.3 7.2 7.9 8.3 8.1 6.3 5.8 4.8 4.6 4.1 4.3 3.7 3.4 3.4 2.6 3.9 5.0 6.4 5.7 6.6 7.7 7.2 7.7 8.9 7.7 8.9 7.8 6.9 5.5 6.3 5.8 6.0 7.0 7.3 6.9 8.9 8.6 9.3
6.5 6.9 7.0 7.1 7.5 7.3 6.5 7.3 6.9 7.2 7.3 8.1 8.2 8.4 8.3 7.7 6.7 6.1 4.5 4.2 4.5 5.2 4.6 4.8 4.5 5.5 6.3 7.1 6.2 5.5 5.8 7.9 8.7 7.8 8.8 9.2 9.1 9.3 7.4 8.0 7.4 8.0 9.3 8.8 9.6 9.2 7.5 7.3 7.4
6.5 6.5 7.2 7.5 7.5 7.4 7.4 6.8 6.8 7.1 8.0 8.4 8.5 8.4 8.3 8.2 8.0 6.2 5.4 5.0 4.6 5.3 5.2 5.5 5.7 6.3 6.8 6.3 5.0 6.2 8.2 8.8 8.2 8.2 9.0 9.2 9.5 9.6 9.5 9.6 9.6 9.6 9.7 9.5 9.6 7.8 7.8 7.5 7.7
7.1 7.0 7.0 7.3 7.2 7.3 6.7 6.7 7.2 7.4 8.2 8.1 8.1 8.2 8.4 8.0 6.6 5.5 5.4 5.4 5.5 5.5 5.5 6.1 5.9 5.6 5.4 5.6 7.2 7.0 7.8 7.7 8.1 8.0 8.7 9.2 9.5 9.2 9.6 9.6 9.7 9.7 9.6 9.6 9.7 8.9 8.9 9.7 9.4
7.3 6.5 6.5 6.8 7.0 6.6 7.3 6.5 6.5 7.7 8.0 7.7 7.9 8.2 8.3 8.4 6.8 6.3 6.3 5.9 5.7 5.3 6.4 4.9 5.4 5.4 6.8 7.0 7.5 8.4 9.2 9.5 9.7 9.6 9.6 9.0 9.4 9.0 9.6 9.6 9.7 9.6 9.6 9.4 9.6 8.6 9.5 9.8 9.5
6.5 6.5 6.5 6.5 6.7 6.9 6.9 6.5 6.5 7.8 7.7 7.4 7.7 8.0 8.2 8.5 8.3 6.9 6.7 6.1 6.4 5.8 5.8 5.8 6.5 6.7 6.5 7.1 8.0 9.1 9.9 9.7 9.8 9.8 9.6 9.5 9.2 8.6 8.9 8.7 7.6 7.8 9.4 8.4 9.0 9.7 9.8 9.7 9.7
6.5 6.5 6.5 6.5 6.6 6.5 6.5 6.5 6.5 7.7 7.5 7.3 7.6 7.7 8.0 8.4 8.7 9.0 9.3 9.2 9.3 9.2 7.6 7.1 7.4 7.5 7.6 8.3 9.6 9.6 9.3 9.7 9.7 9.6 9.0 7.3 6.8 6.8 6.6 7.1 8.4 8.2 9.2 9.1 9.4 9.8 9.7 9.5 9.7
6.5 6.5 6.5 6.5 6.5 6.5 6.5 6.5 6.5 7.3 7.3 7.2 7.5 7.8 8.0 8.1 8.4 8.9 9.2 9.4 9.4 9.6 9.6 9.5 9.3 8.3 7.9 8.0 9.2 9.4 9.6 9.7 9.7 9.6 9.4 8.3 7.7 6.0 6.2 8.6 9.2 7.2 9.2 9.6 9.7 9.6 9.6 9.7 9.6
6.5 6.5 6.5 6.5 6.5 6.5 6.5 6.5 6.5 6.9 7.0 6.9 7.2 7.5 7.7 8.0 8.5 8.9 8.9 9.3 9.2 9.3 9.4 9.4 9.2 9.2 8.9 9.3 9.5 9.4 9.4 9.7 9.8 9.3 8.4 7.5 7.2 6.3 6.7 9.5 8.1 7.8 9.7 9.7 9.1 8.7 8.6 9.3 9.3
6.5 6.5 6.5 6.5 6.5 6.5 6.5 6.5 6.5 6.5 6.8 7.3 7.3 7.4 7.5 8.0 8.4 8.6 8.8 9.0 9.2 9.2 9.3 9.5 9.5 9.5 9.6 9.7 9.7 9.7 9.6 9.8 9.8 8.6 7.4 7.8 7.4 6.9 6.8 9.2 8.6 8.0 9.8 9.6 8.8 9.2 9.3 9.5 9.6
6.5 6.5 6.5 6.5 6.5 6.5 6.5 6.5 6.5 6.5 6.9 7.3 7.6 7.8 8.0 7.8 8.1 8.5 8.7 8.8 9.0 9.1 9.2 9.4 9.5 9.6 9.6 9.6 9.8 9.8 9.8 9.7 9.6 8.9 8.4 7.8 7.1 7.8 7.3 8.7 9.2 9.2 9.7 9.6 9.4 8.8 9.3 9.1 9.4
6.5 6.5 6.5 6.5 6.5 6.5 6.5 6.5 6.5 6.5 6.5 6.5 7.1 7.5 7.8 8.0 8.4 8.6 8.7 8.8 9.0 9.1 9.3 9.5 9.5 9.6 9.6 9.2 9.5 9.3 9.3 9.1 9.4 9.3 8.8 8.4 8.0 7.1 6.6 8.0 8.5 8.8 8.9 9.6 9.2 9.6 9.5 9.3 9.0
6.5 6.5 6.5 6.5 6.5 6.5 6.5 6.5 6.5 6.5 6.5 6.5 6.6 7.4 7.8 8.1 8.2 8.4 8.7 8.9 9.2 9.2 9.2 9.3 9.5 9.4 9.6 9.2 9.4 9.5 9.2 9.4 9.5 9.2 8.4 8.1 6.9 6.2 7.0 7.4 9.0 9.0 8.1 9.4 9.4 9.6 9.4 8.8 8.7
6.5 6.5 6.5 6.5 6.5 6.5 6.5 6.5 6.5 6.5 6.5 6.5 6.7 7.4 7.7 8.0 8.3 8.6 8.8 8.9 9.1 9.1 9.2 9.3 9.4 9.4 9.5 9.5 9.4 9.3 9.1 9.3 9.2 8.4 8.4 8.4 8.3 5.7 4.5 5.5 7.8 8.9 8.4 9.4 9.6 9.7 9.0 7.4 7.3
6.5 6.5 6.5 6.5 6.5 6.5 6.5 6.5 6.5 6.5 6.5 6.5 6.5 7.1 7.6 8.0 8.1 8.3 8.6 8.8 8.9 8.9 9.0 9.2 9.3 9.3 9.4 9.4 9.3 9.3 9.3 9.2 8.9 8.6 8.3 7.8 6.7 4.5 4.4 5.5 6.8 7.8 8.5 9.5 9.6 9.1 7.5 5.5 6.3
6.5 6.5 6.5 6.5 6.5 6.5 6.5 6.5 6.5 6.5 6.8 7.1 7.3 7.5 7.7 7.8 8.1 8.3 8.6 8.7 8.8 8.8 8.9 9.1 9.1 9.1 9.3 9.3 9.3 9.4 9.3 9.4 8.8 8.7 8.7 7.1 7.0 6.5 5.7 5.1 5.6 6.8 8.4 9.4 9.0 7.8 5.7 5.6 6.1
6.5 6.5 6.5 6.5 6.5 6.5 6.5 6.5 6.5 6.5 6.5 6.7 6.9 7.2 7.3 7.7 8.0 8.3 8.6 8.6 8.7 8.8 9.0 9.0 9.1 9.2 9.3 9.3 9.4 9.2 9.4 9.1 8.5 8.0 8.1 8.0 7.2 6.6 5.6 5.5 5.5 7.0 7.9 8.0 5.3 3.4 2.2 2.8 4.5
6.5 6.5 6.5 6.5 6.5 6.5 6.5 6.5 6.5 6.5 6.5 6.5 6.5 6.9 7.3 7.7 7.9 8.2 8.5 8.5 8.8 9.0 9.1 9.0 9.3 9.3 9.3 9.3 9.2 9.3 9.2 8.5 7.5 5.5 5.9 6.2 6.3 5.6 4.9 5.4 4.8 5.7 4.4 4.1 3.5 2.7 2.8 4.1 5.3
6.5 6.5 6.5 6.5 6.5 6.5 6.5 6.5 6.5 6.5 6.5 6.5 6.5 7.1 7.4 7.6 7.9 8.2 8.5 8.7 8.9 9.0 9.0 9.0 9.2 9.3 9.3 9.4 9.2 9.1 8.9 8.2 7.6 6.0 6.4 6.2 5.3 4.1 3.9 3.9 4.2 3.9 3.0 3.0 2.7 3.1 4.3 4.4 4.7
6.5 6.5 6.5 6.5 6.5 6.5 6.5 6.5 6.5 6.5 6.5 6.7 6.8 7.2 7.6 7.8 8.0 8.3 8.5 8.6 8.7 8.8 9.0 9.0 9.1 9.2 9.3 9.4 9.2 8.4 8.0 6.3 6.0 5.0 3.8 2.8 1.2 2.3 1.3 1.9 2.5 2.8 2.8 2.3 2.7 3.5 4.3 4.7 6.1
Wind_Speed
11 14 9 8 8 8 15 17 5 8 9 29 8 14 23 17 3 2 13 10 17 19 26 25 22 28 27 27 28 27 27 27 25 24 23 23 22 22 22 22 22 22 22 24 23 23 23 23 22
12 5 7 9 9 13 9 11 1 3 8 27 20 10 21 22 19 4 6 2 16 19 26 26 21 27 26 27 27 27 27 26 25 24 23 22 21 21 21 21 20 21 22 23 23 23 22 22 20
12 9 10 11 13 13 5 4 5 9 9 5 12 9 9 9 5 4 6 9 13 13 24 27 21 25 27 27 27 27 27 26 25 24 23 22 21 20 20 20 20 22 21 23 22 23 21 20 18
6 7 7 9 17 9 6 12 10 10 13 9 11 6 7 6 7 9 8 8 13 15 19 29 24 26 28 28 28 28 28 27 25 24 24 22 21 20 20 20 22 24 23 24 21 21 20 19 18
8 8 11 14 12 2 6 7 5 7 13 8 6 14 9 2 9 7 7 11 16 16 17 30 25 26 28 29 28 28 27 26 25 24 25 23 23 21 21 22 24 24 24 22 22 20 19 18 16
9 4 13 10 3 4 2 8 9 2 7 5 16 11 13 8 5 5 7 10 8 8 13 21 21 26 25 26 26 26 24 24 24 25 25 23 24 23 23 22 24 24 23 21 20 18 18 17 14
12 10 15 10 9 6 6 4 7 9 2 8 14 12 7 7 2 2 2 7 11 10 12 15 17 20 25 26 24 24 23 21 21 22 22 25 25 23 25 24 24 23 23 21 20 18 17 16 14
9 7 17 7 6 2 2 6 3 7 11 7 5 8 1 13 7 7 9 7 7 8 9 13 18 16 22 21 23 21 22 23 23 23 23 23 25 24 25 24 24 23 22 22 18 17 17 15 11
10 12 10 5 5 5 3 9 8 3 11 2 7 9 14 11 11 8 10 10 8 9 13 16 18 21 27 23 15 22 21 22 22 23 27 21 20 21 21 21 21 23 21 20 17 16 16 13 11
10 13 6 7 10 8 8 11 10 3 7 10 7 5 6 9 9 8 8 5 7 8 13 15 16 17 26 23 22 15 17 18 17 18 17 15 17 15 20 19 21 21 20 17 17 16 16 15 9
11 11 14 6 4 10 10 8 5 12 14 13 12 9 5 6 9 6 7 8 8 10 11 17 16 26 17 13 14 11 9 15 13 13 14 16 14 17 16 16 15 15 15 14 14 12 7 7 6
10 13 8 12 6 9 10 4 12 5 11 7 10 5 7 7 5 9 10 6 12 12 14 11 15 13 14 12 11 10 10 10 9 9 9 10 11 14 14 14 14 14 13 14 10 6 6 7 7
11 9 7 5 7 8 3 8 6 4 5 8 9 7 5 4 4 9 11 8 11 12 16 15 12 11 9 9 13 8 12 13 11 8 9 13 11 9 14 13 13 13 11 11 8 9 7 6 5
4 8 6 6 4 7 9 8 10 11 8 7 6 7 6 9 9 10 11 11 13 15 17 15 14 12 14 7 7 6 5 8 10 11 13 14 12 10 11 11 12 10 12 10 9 8 7 5 6
13 15 10 15 7 1 8 11 12 13 9 10 8 8 9 7 9 11 12 11 14 13 16 17 14 18 14 13 14 12 13 18 16 18 17 16 13 12 11 10 10 12 10 10 8 7 5 5 4
15 20 14 11 19 3 11 5 31 11 10 10 11 8 13 15 15 15 14 15 13 14 13 15 17 20 15 16 18 17 17 15 16 16 16 14 8 10 9 9 8 11 10 11 9 7 5 4 3
16 12 15 10 6 6 4 3 7 8 8 8 9 12 10 15 16 16 17 18 20 22 22 19 20 17 16 15 16 10 11 12 13 11 12 13 11 13 12 12 13 13 11 9 8 5 5 4 4
4 12 3 10 7 10 8 10 3 6 8 10 9 10 11 13 14 15 18 19 22 23 21 19 15 15 15 10 8 9 9 13 15 14 13 14 12 12 13 12 11 14 10 8 7 6 5 5 2
11 10 11 7 5 6 2 15 7 10 7 9 10 11 12 14 12 18 17 18 18 17 18 18 17 14 11 9 9 9 9 10 10 12 11 13 14 15 15 12 12 15 9 8 8 6 7 5 3
10 12 11 7 1 7 12 5 8 12 13 13 13 14 14 15 20 17 16 19 21 22 19 17 15 16 13 10 9 8 9 10 10 12 12 14 14 15 16 13 11 14 8 9 9 9 7 5 3
11 12 10 8 9 10 10 6 9 11 10 12 15 15 18 17 18 20 21 21 22 20 19 16 16 15 13 13 9 8 8 8 9 10 6 10 15 16 18 16 14 13 10 9 10 9 10 6 5
13 10 7 11 13 2 15 3 18 15 14 14 14 16 17 20 19 18 20 21 20 19 18 18 17 17 14 11 11 14 11 11 9 8 7 9 16 15 18 15 16 13 11 10 10 9 8 7 7
13 1 8 11 11 14 5 8 9 12 13 17 17 17 17 18 20 21 23 22 21 19 17 18 18 17 15 15 14 12 12 10 9 8 11 11 11 17 13 14 16 11 10 9 10 9 9 5 4
6 7 10 10 12 9 12 6 12 9 5 6 12 18 17 18 19 20 21 22 21 16 17 18 19 19 17 16 17 16 15 14 11 8 7 7 8 8 11 15 14 13 11 8 9 9 8 4 2
10 12 7 6 6 9 5 5 12 1 5 2 4 5 13 17 19 20 20 20 20 22 21 18 20 20 19 18 18 18 17 16 12 11 10 8 9 10 12 13 10 8 11 11 12 7 6 4 3
16 15 6 7 7 8 9 6 1 5 2 3 3 6 6 10 17 21 21 20 21 21 22 21 20 20 20 19 18 16 18 11 9 11 8 7 9 10 12 11 8 8 11 10 8 6 3 4 1
14 16 12 7 3 4 7 8 9 4 4 2 1 3 3 5 12 19 21 20 20 20 20 20 21 20 19 18 15 16 14 15 9 10 10 7 6 6 9 11 7 7 8 11 11 4 5 4 4
12 12 9 8 9 9 13 9 6 7 3 5 3 4 4 2 4 10 14 17 17 18 18 17 19 19 18 17 14 14 14 13 12 8 10 10 9 8 5 3 7 5 11 12 6 5 5 3 2
12 11 9 10 12 7 8 6 8 2 4 4 3 1 2 4 6 5 8 11 15 15 16 17 18 18 17 16 15 12 12 11 10 6 8 8 6 6 6 6 8 11 10 7 5 4 3 3 5
18 19 18 9 13 9 9 11 11 6 11 4 7 5 4 2 2 6 6 7 9 11 12 13 14 15 15 14 13 12 7 6 4 5 6 9 10 11 13 12 10 8 7 6 7 7 5 8 11
Wind_Direction
204 221 237 253 247 228 257 265 22 318 252 353 351 264 236 246 308 172 293 110 131 141 149 154 143 139 142 139 137 137 135 132 132 132 130 127 127 126 125 123 123 120 118 115 111 109 104 99 95
236 236 241 270 253 263 264 359 341 317 351 151 258 271 256 259 119 182 268 322 163 152 150 150 140 138 141 139 138 135 133 133 133 133 131 129 127 125 123 122 123 121 121 118 113 108 105 101 97
252 255 267 245 244 269 8 356 331 319 341 210 217 216 270 309 61 179 318 175 156 150 156 138 142 141 140 139 136 134 135 134 134 134 130 127 123 119 118 118 124 127 126 118 114 111 108 103 95
226 218 232 254 266 299 342 342 357 291 196 191 246 129 102 19 347 334 6 188 161 164 156 141 145 144 141 138 137 138 137 137 136 131 125 123 117 111 109 109 116 127 125 115 114 111 109 101 100
239 260 262 238 264 331 12 349 359 315 319 12 215 236 109 341 313 294 197 195 182 160 163 151 144 142 140 137 137 137 135 134 131 129 124 121 114 105 102 101 108 113 110 115 115 111 103 96 93
260 248 267 277 298 107 67 359 330 319 309 248 249 345 85 118 264 260 192 182 196 81 130 138 144 137 135 131 129 129 130 130 130 127 122 118 106 100 98 99 103 105 108 109 107 106 101 98 90
257 286 284 331 295 265 112 54 317 330 319 332 335 273 90 130 358 63 204 144 120 124 129 138 147 133 108 106 108 115 119 122 122 115 110 111 106 105 102 100 104 105 107 106 105 103 102 96 87
291 281 266 243 294 150 64 314 90 302 9 331 304 322 97 112 93 89 64 130 122 126 128 126 90 118 92 106 104 103 108 112 113 109 107 104 105 105 103 103 107 111 109 109 112 109 104 100 99
258 265 274 323 269 81 37 284 182 102 281 283 352 336 52 94 93 82 89 85 106 86 97 94 101 111 116 104 102 97 102 110 109 114 120 122 126 124 113 106 109 107 106 109 114 113 116 118 105
258 280 357 31 338 338 344 312 340 334 218 263 156 84 92 112 107 105 101 94 99 104 109 115 114 105 120 122 142 147 131 130 127 135 143 126 133 135 125 118 105 105 107 112 119 133 153 162 140
267 272 317 310 359 313 305 281 358 307 300 47 354 112 159 132 117 89 75 86 111 113 109 125 128 128 138 122 130 111 97 121 133 160 153 141 127 123 133 129 125 123 127 132 139 168 184 59 57
270 274 292 303 311 294 282 22 287 291 6 0 60 96 123 103 94 136 113 99 131 113 122 122 120 127 143 136 122 96 110 121 151 178 136 145 151 148 143 146 148 154 164 166 170 115 115 95 88
244 295 315 311 265 250 269 255 288 294 82 85 105 104 102 110 119 96 110 115 113 121 120 125 120 117 119 79 79 119 162 157 166 168 164 174 159 156 164 157 161 175 160 179 158 145 146 126 114
9 278 255 224 189 196 262 234 235 117 133 129 137 109 111 108 107 112 117 120 112 105 109 113 119 123 119 125 162 147 181 171 185 173 191 207 166 158 164 164 176 165 176 169 175 160 163 153 148
273 263 267 356 196 235 281 310 237 127 150 139 117 122 137 107 117 116 119 117 132 122 134 135 133 140 148 153 182 195 199 198 192 188 184 192 185 171 166 170 177 178 175 169 166 174 168 170 143
253 245 283 174 261 126 278 124 242 136 144 162 142 149 117 110 139 143 141 134 137 121 131 145 153 166 168 199 190 201 191 188 193 186 181 181 168 171 174 166 175 182 168 178 176 187 180 175 175
230 256 244 194 215 307 269 280 309 150 162 159 176 147 141 137 149 150 154 156 156 151 155 161 174 182 197 196 193 178 157 199 187 172 179 178 175 178 183 184 192 172 182 178 189 186 197 167 196
258 248 289 276 183 228 248 243 157 156 167 162 182 158 154 156 155 148 158 156 149 158 170 174 174 189 184 180 170 177 177 193 188 190 187 181 187 185 200 201 182 190 184 187 195 188 184 202 190
313 299 277 242 114 277 279 287 111 153 164 165 174 186 166 174 179 160 163 166 163 171 181 193 178 186 183 190 182 187 192 196 199 175 193 190 200 198 205 200 185 205 196 195 184 188 178 183 188
247 264 268 274 119 243 273 251 159 163 174 186 180 181 179 198 165 185 178 176 184 183 197 190 192 183 196 194 194 198 200 197 203 166 197 201 201 196 204 205 191 201 199 197 192 193 190 200 192
238 262 282 283 280 259 261 247 168 184 175 203 178 186 186 186 189 180 183 197 191 196 198 208 201 200 196 210 189 189 197 209 208 176 182 203 204 205 208 203 197 195 208 195 199 201 205 201 182
264 222 259 273 267 70 260 220 259 166 194 201 193 187 186 189 194 190 192 193 199 205 202 205 206 208 194 208 188 201 203 203 205 186 195 216 212 208 204 207 208 197 200 201 200 206 211 234 187
264 194 247 261 274 284 243 251 174 199 194 190 200 199 193 196 190 195 193 200 201 201 204 202 210 212 200 189 217 197 215 210 208 183 191 191 201 211 205 211 219 208 204 205 199 205 210 188 215
232 225 238 244 248 248 215 273 172 186 318 115 174 194 205 198 196 203 197 197 198 198 200 206 210 210 210 198 204 215 206 224 219 187 185 187 191 198 209 219 209 215 213 212 204 200 194 173 196
205 223 226 210 204 249 87 247 256 280 132 327 298 175 202 211 204 202 203 195 199 197 200 204 205 212 206 210 209 213 217 217 225 196 208 184 203 199 208 210 209 210 213 216 202 181 160 137 192
210 224 217 225 228 240 140 248 228 90 29 242 250 232 223 227 217 212 204 199 200 201 198 203 206 211 206 208 210 212 217 220 215 219 222 198 202 207 203 201 197 205 211 199 159 139 131 127 237
204 221 261 272 255 297 283 229 243 195 238 225 104 267 219 246 231 216 209 206 199 201 198 200 209 209 210 203 207 214 213 218 210 202 218 203 198 192 190 188 189 198 196 134 123 114 110 128 212
267 221 210 229 253 237 251 226 278 164 158 154 184 82 110 124 215 216 220 210 214 202 202 195 211 214 208 197 200 214 212 211 210 196 209 205 207 200 171 165 155 146 110 117 114 123 139 176 240
202 233 230 241 234 250 263 281 56 47 179 224 222 227 45 94 146 190 213 223 210 210 207 195 208 214 210 206 193 204 216 202 202 189 197 208 171 145 116 107 107 118 113 110 115 125 126 190 235
203 208 219 237 242 225 259 279 321 279 267 306 256 227 261 221 152 155 178 191 204 209 208 204 203 212 209 204 189 188 190 162 176 119 104 88 95 100 110 105 107 109 122 142 159 165 202 221 233